IU1FIL-3 Weather Reports


time (UTC)temp
F
wind
direction
speed
knots
gust
knots
rain 1hr
in
rain 24hr
in
rain mn
in
humidity
%
barometer
mb
20260508013428 53 0.0 0.0 0.00 0.00 0.00 10 1016.0
20260508012426 52 0.0 0.0 0.00 0.00 0.00 10 1016.0
20260508011424 52 0.0 0.0 0.00 0.00 0.00 10 1016.1
20260508010421 52 0.0 0.0 0.00 0.00 0.00 10 1016.2
20260508005419 52 0.0 0.0 0.00 0.00 0.00 10 1016.3
20260508004417 52 0.0 0.0 0.00 0.00 0.00 10 1016.5
20260508003415 52 0.0 0.0 0.00 0.00 0.00 10 1016.4
20260508002413 53 0.0 0.0 0.00 0.00 0.00 10 1016.6
20260508001412 53 0.0 0.0 0.00 0.00 0.00 10 1016.7
20260508000412 53 0.0 0.0 0.00 0.00 0.00 10 1016.8
20260507235408 53 0.0 0.0 0.00 0.00 0.00 10 1016.9
20260507234406 53 0.0 0.0 0.00 0.00 0.00 10 1016.9
20260507233403 53 0.0 0.0 0.00 0.00 0.00 10 1016.8
20260507232402 53 0.0 0.0 0.00 0.00 0.00 10 1016.9
20260507231359 53 0.0 0.0 0.00 0.00 0.00 10 1017.1
20260507230357 53 0.0 0.0 0.00 0.00 0.00 10 1017.1
20260507225355 53 0.0 0.0 0.00 0.00 0.00 10 1017.2
20260507224353 53 0.0 0.0 0.00 0.00 0.00 10 1017.2
20260507223352 53 0.0 0.0 0.00 0.00 0.00 10 1017.3
20260507222350 54 0.0 0.0 0.00 0.00 0.00 10 1017.3
20260507221348 54 0.0 0.0 0.00 0.00 0.00 10 1017.3
20260507220346 53 0.0 0.0 0.00 0.00 0.00 10 1017.2
20260507215817 54 0.0 0.0 0.00 0.00 0.00 10 1017.2
20260507214816 54 0.0 0.0 0.00 0.00 0.00 10 1017.1
20260507213814 54 0.0 0.0 0.00 0.00 0.00 10 1017.1
20260507212812 54 0.0 0.0 0.00 0.00 0.00 10 1016.9
20260507211810 54 0.0 0.0 0.00 0.00 0.00 10 1016.8
20260507210807 54 0.0 0.0 0.00 0.00 0.00 10 1016.8
20260507205806 55 0.0 0.0 0.00 0.00 0.00 10 1016.7
20260507204805 54 0.0 0.0 0.00 0.00 0.00 10 1016.7
20260507203803 55 0.0 0.0 0.00 0.00 0.00 10 1016.7
20260507202801 55 0.0 0.0 0.00 0.00 0.00 10 1016.8
20260507201759 55 0.0 0.0 0.00 0.00 0.00 10 1016.8
20260507200757 55 0.0 0.0 0.00 0.00 0.00 10 1016.6
20260507195756 55 0.0 0.0 0.00 0.00 0.00 10 1016.7
20260507194754 55 0.0 0.0 0.00 0.00 0.00 10 1016.6
20260507193753 56 0.0 0.0 0.00 0.00 0.00 10 1016.4
20260507192751 56 0.0 0.0 0.00 0.00 0.00 10 1016.3
20260507191749 57 0.0 0.0 0.00 0.00 0.00 10 1016.0
20260507190747 57 0.0 0.0 0.00 0.00 0.00 10 1016.1
20260507185745 57 0.0 0.0 0.00 0.00 0.00 10 1015.8
20260507184743 58 0.0 0.0 0.00 0.00 0.00 10 1015.7
20260507183740 58 0.0 0.0 0.00 0.00 0.00 10 1015.6
20260507182739 59 0.0 0.0 0.00 0.00 0.00 10 1015.6
20260507181738 60 0.0 0.0 0.00 0.00 0.00 10 1015.4
20260507180736 61 0.0 0.0 0.00 0.00 0.00 10 1015.2
20260507175734 61 0.0 0.0 0.00 0.00 0.00 10 1015.2
20260507174733 64 0.0 0.0 0.00 0.00 0.00 10 1014.7
20260507173731 65 0.0 0.0 0.00 0.00 0.00 10 1014.6
20260507172729 70 0.0 0.0 0.00 0.00 0.00 10 1014.2
20260507171727 66 0.0 0.0 0.00 0.00 0.00 10 1014.7
20260507170725 61 0.0 0.0 0.00 0.00 0.00 10 1015.4
20260507165723 62 0.0 0.0 0.00 0.00 0.00 10 1015.2
20260507164721 62 0.0 0.0 0.00 0.00 0.00 10 1015.1
20260507163719 71 0.0 0.0 0.00 0.00 0.00 10 1014.2
20260507162717 66 0.0 0.0 0.00 0.00 0.00 10 1014.7
20260507161716 64 0.0 0.0 0.00 0.00 0.00 10 1014.8
20260507160714 63 0.0 0.0 0.00 0.00 0.00 10 1014.9
20260507155712 62 0.0 0.0 0.00 0.00 0.00 10 1014.9
20260507154710 63 0.0 0.0 0.00 0.00 0.00 10 1014.9
20260507153709 63 0.0 0.0 0.00 0.00 0.00 10 1014.7
20260507152707 64 0.0 0.0 0.00 0.00 0.00 10 1014.6
20260507151706 67 0.0 0.0 0.00 0.00 0.00 10 1014.1
20260507150703 66 0.0 0.0 0.00 0.00 0.00 10 1014.4
20260507145701 63 0.0 0.0 0.00 0.00 0.00 10 1014.8
20260507144659 64 0.0 0.0 0.00 0.00 0.00 10 1014.8
20260507143657 62 0.0 0.0 0.00 0.00 0.00 10 1014.9
20260507142655 63 0.0 0.0 0.00 0.00 0.00 10 1015.0
20260507141653 63 0.0 0.0 0.00 0.00 0.00 10 1015.0
20260507140650 65 0.0 0.0 0.00 0.00 0.00 10 1014.7
20260507135649 65 0.0 0.0 0.00 0.00 0.00 10 1014.7
20260507134647 64 0.0 0.0 0.00 0.00 0.00 10 1015.0
20260507133645 62 0.0 0.0 0.00 0.00 0.00 10 1015.4
20260507132643 60 0.0 0.0 0.00 0.00 0.00 10 1015.7
20260507131643 61 0.0 0.0 0.00 0.00 0.00 10 1015.6
20260507130639 62 0.0 0.0 0.00 0.00 0.00 10 1015.5
20260507125637 62 0.0 0.0 0.00 0.00 0.00 10 1015.4
20260507124634 62 0.0 0.0 0.00 0.00 0.00 10 1015.2
20260507123632 62 0.0 0.0 0.00 0.00 0.00 10 1015.3
20260507122630 63 0.0 0.0 0.00 0.00 0.00 10 1015.0
20260507121628 63 0.0 0.0 0.00 0.00 0.00 10 1015.0
20260507120626 63 0.0 0.0 0.00 0.00 0.00 10 1015.0
20260507115624 62 0.0 0.0 0.00 0.00 0.00 10 1015.1
20260507114622 64 0.0 0.0 0.00 0.00 0.00 10 1014.9
20260507113621 64 0.0 0.0 0.00 0.00 0.00 10 1014.9
20260507112619 63 0.0 0.0 0.00 0.00 0.00 10 1015.0
20260507111616 65 0.0 0.0 0.00 0.00 0.00 10 1014.8
20260507110614 65 0.0 0.0 0.00 0.00 0.00 10 1014.8
20260507105613 65 0.0 0.0 0.00 0.00 0.00 10 1014.8
20260507104610 66 0.0 0.0 0.00 0.00 0.00 10 1014.8
20260507103608 64 0.0 0.0 0.00 0.00 0.00 10 1015.0
20260507102606 66 0.0 0.0 0.00 0.00 0.00 10 1014.9
20260507101604 65 0.0 0.0 0.00 0.00 0.00 10 1015.0
20260507100603 64 0.0 0.0 0.00 0.00 0.00 10 1015.1
20260507095602 65 0.0 0.0 0.00 0.00 0.00 10 1015.1
20260507094600 64 0.0 0.0 0.00 0.00 0.00 10 1015.0
20260507093558 64 0.0 0.0 0.00 0.00 0.00 10 1015.0
20260507092556 63 0.0 0.0 0.00 0.00 0.00 10 1015.0
20260507091554 64 0.0 0.0 0.00 0.00 0.00 10 1014.8
20260507090553 63 0.0 0.0 0.00 0.00 0.00 10 1014.9
20260507085551 62 0.0 0.0 0.00 0.00 0.00 10 1014.9
20260507084549 62 0.0 0.0 0.00 0.00 0.00 10 1014.8
20260507083547 62 0.0 0.0 0.00 0.00 0.00 10 1014.7
20260507082546 61 0.0 0.0 0.00 0.00 0.00 10 1014.7
20260507081543 62 0.0 0.0 0.00 0.00 0.00 10 1014.6
20260507080541 61 0.0 0.0 0.00 0.00 0.00 10 1014.7
20260507075539 60 0.0 0.0 0.00 0.00 0.00 10 1014.9
20260507074537 59 0.0 0.0 0.00 0.00 0.00 10 1015.0
20260507073535 57 0.0 0.0 0.00 0.00 0.00 10 1015.2
20260507072534 58 0.0 0.0 0.00 0.00 0.00 10 1015.2
20260507071532 57 0.0 0.0 0.00 0.00 0.00 10 1015.1
20260507070530 56 0.0 0.0 0.00 0.00 0.00 10 1015.2
20260507065528 55 0.0 0.0 0.00 0.00 0.00 10 1015.2
20260507064525 55 0.0 0.0 0.00 0.00 0.00 10 1015.1
20260507063523 54 0.0 0.0 0.00 0.00 0.00 10 1015.0
20260507062521 54 0.0 0.0 0.00 0.00 0.00 10 1015.0
20260507061519 54 0.0 0.0 0.00 0.00 0.00 10 1014.9
20260507060517 54 0.0 0.0 0.00 0.00 0.00 10 1014.9
20260507055517 53 0.0 0.0 0.00 0.00 0.00 10 1014.9
20260507054514 53 0.0 0.0 0.00 0.00 0.00 10 1014.8
20260507053512 53 0.0 0.0 0.00 0.00 0.00 10 1014.6
20260507052510 53 0.0 0.0 0.00 0.00 0.00 10 1014.6
20260507051508 53 0.0 0.0 0.00 0.00 0.00 10 1014.5
20260507050506 52 0.0 0.0 0.00 0.00 0.00 10 1014.3
20260507045505 52 0.0 0.0 0.00 0.00 0.00 10 1014.3
20260507044504 52 0.0 0.0 0.00 0.00 0.00 10 1014.3
20260507043501 52 0.0 0.0 0.00 0.00 0.00 10 1014.3
20260507042459 52 0.0 0.0 0.00 0.00 0.00 10 1014.1
20260507041457 52 0.0 0.0 0.00 0.00 0.00 10 1014.2
20260507040455 52 0.0 0.0 0.00 0.00 0.00 10 1014.2
20260507035454 52 0.0 0.0 0.00 0.00 0.00 10 1014.1
20260507034452 52 0.0 0.0 0.00 0.00 0.00 10 1013.9
20260507033451 52 0.0 0.0 0.00 0.00 0.00 10 1013.9
20260507032449 52 0.0 0.0 0.00 0.00 0.00 10 1013.8
20260507031448 52 0.0 0.0 0.00 0.00 0.00 10 1013.9
20260507030445 51 0.0 0.0 0.00 0.00 0.00 10 1013.8
20260507025443 52 0.0 0.0 0.00 0.00 0.00 10 1013.8
20260507024442 52 0.0 0.0 0.00 0.00 0.00 10 1013.7
20260507023440 52 0.0 0.0 0.00 0.00 0.00 10 1013.7
20260507022439 52 0.0 0.0 0.00 0.00 0.00 10 1013.6
20260507021437 52 0.0 0.0 0.00 0.00 0.00 10 1013.5
20260507020435 52 0.0 0.0 0.00 0.00 0.00 10 1013.5
20260507015434 52 0.0 0.0 0.00 0.00 0.00 10 1013.5
20260507014432 52 0.0 0.0 0.00 0.00 0.00 10 1013.4